Regional Weather Roundup
Issued by NWS Sterling, VA

Home | Current Version | Previous Version | Graphics & Text | Print | Product List | Glossary On
Versions: 1 2 3 4 5 6 7 8 9 10 11 12 13 14 15 16 17 18 19 20 21 22 23 24 25 26 27 28
000
ASUS41 KLWX 241110
RWRLWX

REGIONAL WEATHER ROUNDUP
NATIONAL WEATHER SERVICE BALTIMORE MD/WASHINGTON DC
700 AM EDT SAT SEP 24 2016

Note: "FAIR" indicates few or no clouds below 12,000 feet
with no significant weather and/or obstructions to visibility.
 TC=TEMPERATURE CELSIUS

 * =Non NWS site. Station does not report precipitation (e.g. rain,
    snow, etc.), thunder, or fog.

DCZ001-MDZ009-015-VAZ040>042-051-053>054-241200-
WASHINGTON METRO

CITY           SKY/WX    TMP DP  RH WIND       PRES   REMARKS
WASHINGTON NAT PTCLDY    73  65  75 N10       30.03R
DULLES         PTCLDY    66  62  87 NE6       30.03R
ANDREWS AFB    CLEAR     68  63  84 N7        30.01R
FT BELVOIR     CLEAR     63  62  96 CALM      30.02R
QUANTICO         N/A     69  65  86 NE6       30.02R
COLLEGE PARK*  CLEAR     63  63 100 CALM      30.02R
LEESBURG*      CLOUDY    72  64  78 NE8       30.05R
MANASSAS*      CLEAR     64  63  94 CALM      30.03R
GAITHERSBURG*  MOCLDY    66  61  82 NE5       30.08R

$$

MDZ006>007-011-014-241200-
BALTIMORE METRO

CITY           SKY/WX    TMP DP  RH WIND       PRES   REMARKS
BWI AIRPORT    PTCLDY    71  63  75 NE10      30.03R
MD SCIENCE CTR   N/A     73  63  70 MISG      30.03R
MARTIN STATE   PTCLDY    72  68  88 CALM      30.04R
ANNAPOLIS      CLEAR     74  67  78 NE10      30.01R
FORT MEADE*    CLEAR     63  61  94 CALM      30.05R

$$

MDZ012-015-019>023-241200-
MARYLAND EASTERN SHORE

CITY           SKY/WX    TMP DP  RH WIND       PRES   REMARKS
OCEAN CITY     CLEAR     68  66  93 NW5       29.99R
SALISBURY      CLEAR     65  63  93 CALM      29.99R
BAY BRIDGE AP* CLEAR     70  66  88 MISG      30.01R

$$

MDZ017>025-241200-
SOUTHERN MARYLAND

CITY           SKY/WX    TMP DP  RH WIND       PRES   REMARKS
PATUXENT RIVER PTCLDY    68  65  90 W3        30.00R
ST INIGOES     CLEAR     69  65  86 W3        29.99R
LEONARDTOWN*   NOT AVBL

$$

MDZ003>005-241200-
NORTH CENTRAL MARYLAND

CITY           SKY/WX    TMP DP  RH WIND       PRES   REMARKS
FREDERICK*     PTCLDY    64  64 100 NE6       30.07
HAGERSTOWN APT CLOUDY    69  61  75 N8        30.06R

$$

MDZ501>502-241200-
WESTERN MARYLAND

CITY           SKY/WX    TMP DP  RH WIND       PRES   REMARKS
OAKLAND*       CLOUDY    63  55  77 W3        30.17R
CUMBERLAND*    CLOUDY    64  63  94 CALM      30.11R

$$

VAZ025>031-241200-
SHENANDOAH VALLEY

CITY           SKY/WX    TMP DP  RH WIND       PRES   REMARKS
WINCHESTER*    PTCLDY    66  61  82 CALM      30.07R
FRONT ROYAL*   FAIR      64  63  94 S6        30.05R
LURAY*         FAIR     N/A N/A N/A CALM      30.07R
NEW MARKET*    FAIR     N/A N/A N/A CALM      30.07S
STAUNTON*      CLOUDY    59  58  97 CALM      30.11S
WAYNESBORO*    PTSUNNY   62  60  93 CALM      30.10R

$$

WVZ021-048>050-054>055-241200-
EASTERN WEST VIRGINIA PANHANDLE

CITY           SKY/WX    TMP DP  RH WIND       PRES   REMARKS
MARTINSBURG    CLOUDY    69  62  78 N5        30.05R
PETERSBURG*    CLOUDY    63  60  90 CALM      30.08S

$$

VAZ036>039-050-241200-
CENTRAL FOOTHILLS

CITY           SKY/WX    TMP DP  RH WIND       PRES   REMARKS
CHARLOTTESVILL CLOUDY    67  63  87 W5        30.04R
CULPEPER*        N/A     62  62 100 CALM      30.04R FOG
ORANGE*          N/A     64  64 100 CALM      30.04S
GORDONSVILLE*  FAIR      63  63 100 CALM      30.02S
WARRENTON*       N/A     62  58  87 N5        30.03R FOG

$$

VAZ055>057-241200-
NORTH AND CENTRAL PIEDMONT

CITY           SKY/WX    TMP DP  RH WIND       PRES   REMARKS
FREDERICKSBRG* CLEAR     64  64 100 CALM      30.01R
STAFFORD*      CLEAR     64  64 100 CALM      30.05S

$$

NCZ024-NYZ072-PAZ021-071-VAZ022-071-241200-
OTHER REGIONAL OBSERVATIONS

CITY           SKY/WX    TMP DP  RH WIND       PRES   REMARKS
NEW YORK CITY  CLOUDY    59  55  87 VRB7      30.12R
PHILADELPHIA   CLOUDY    65  58  78 NE10      30.05R
PITTSBURGH     CLOUDY    65  63  93 N7        30.12R
ROANOKE        CLEAR     65  61  87 NE3       30.12R
RICHMOND       PTCLDY    64  62  93 CALM      30.02R
RALEIGH        PTCLDY    66  66 100 CALM      30.05R

$$

ANZ530>537-241200-
MARINE OBSERVATIONS

STATION/POSITION TIME  TEMP    WIND        PRES
                       AIR SEA DIR/SP/G
                 (UTC) (F)     (DEG/KT/KT) (MB)
THOMAS PT LIGHT  1100   72 77   40/ 19/ 20 1017.3R
BALT KEY BRIDGE  1042   72      30/  8/  9 1016.5R
COVE POINT       1042   72     330/  9/ 11 1016.3R
LEWISETTA        1048   70 76  280/  6/  7 1015.3R
SOLOMONS ISLAND  1042   71 78  280/  4/  7   N/A
PINEY POINT      1048          300/  7/  8   N/A

$$





USA.gov is the U.S. government's official web portal to all federal, state and local government web resources and services.